Location: Keewatin
(47.4004°N, 93.0827°W)
Time: 01:42:36
(UTC+00:00)

ZACube-1 - Pass Details

Date: 07 March 2020
Orbit: 583 x 667 km, 97.6° (Epoch: 08 April)

Event Time Altitude Azimuth Distance (km) Brightness Sun altitude
Rises 10:49:01 0° 32° (NNE) 2,994 ? -19.5°
Reaches altitude 10° 10:52:53 10° 66° (ENE) 2,057 ? -18.9°
Maximum altitude 10:54:24 12° 86° (E) 1,944 ? -18.6°
Drops below altitude 10° 10:55:55 10° 106° (ESE) 2,035 ? -18.4°
Sets 10:59:40 0° 140° (SE) 2,914 ? -17.7°
